Location: Arrington
(35.8681°N, 86.7092°W)
Time: 00:03:19
(UTC+00:00)

Cosmos 1743 Rocket - Pass Details

Date: 23 November 2019
Orbit: 605 x 632 km, 82.6° (Epoch: 14 December)

Event Time Altitude Azimuth Distance (km) Brightness Sun altitude
Rises 11:01:39 0° 197° (SSW) 2,851 6.9 -17.9°
Reaches altitude 10° 11:03:54 10° 202° (SSW) 1,949 6.0 -17.5°
Maximum altitude 11:08:07 52° 279° (W) 751 3.6 -16.6°
Drops below altitude 10° 11:12:20 10° 356° (N) 1,958 5.9 -15.8°
Sets 11:14:37 0° 2° (N) 2,866 6.8 -15.4°
